GW4629 Weather Reports


Display with metric or nautical units.
time (UTC)temp
F
wind
direction
speed
MPH
gust
MPH
rain 1hr
in
rain 24hr
in
rain mn
in
humidity
%
barometer
mb
20260504004343 59 244 4.0 6.0 0.00 0.00 0.00 99 1016.1
20260504003839 59 161 10.0 13.0 0.00 0.00 0.00 99 1016.2
20260504003336 59 161 10.0 13.0 0.00 0.00 0.00 99 1016.2
20260504002832 60 274 6.0 10.0 0.00 0.00 0.00 99 1015.9
20260504002329 60 274 6.0 10.0 0.00 0.00 0.00 99 1015.9
20260504001827 61 289 4.0 7.0 0.00 0.00 0.00 99 1016.1
20260504001324 61 289 4.0 7.0 0.00 0.00 0.00 99 1016.1
20260504000821 62 262 6.0 9.0 0.00 0.00 0.00 99 1016.1
20260504000318 62 262 6.0 9.0 0.00 0.00 0.00 99 1016.1
20260503235815 60 152 16.0 19.0 0.00 0.00 0.00 99 1016.4
20260503235313 60 152 16.0 19.0 0.00 0.00 0.00 99 1016.4
20260503234810 60 199 15.0 18.0 0.00 0.00 0.00 99 1015.9
20260503234308 60 199 15.0 18.0 0.00 0.00 0.00 99 1015.9
20260503233806 60 166 10.0 15.0 0.00 0.00 0.00 99 1015.9
20260503233301 60 166 10.0 15.0 0.00 0.00 0.00 99 1015.9
20260503232758 60 129 4.0 6.0 0.00 0.00 0.00 99 1016.4
20260503232255 60 129 4.0 6.0 0.00 0.00 0.00 99 1016.4
20260503231753 61 164 10.0 15.0 0.00 0.00 0.00 99 1016.3
20260503231250 61 164 10.0 15.0 0.00 0.00 0.00 99 1016.3
20260503230745 61 125 9.0 13.0 0.00 0.00 0.00 99 1016.4
20260503230243 61 125 9.0 13.0 0.00 0.00 0.00 99 1016.4
20260503225741 60 180 14.0 17.0 0.00 0.00 0.00 99 1016.6
20260503225241 60 180 14.0 17.0 0.00 0.00 0.00 99 1016.6
20260503224738 61 256 7.0 9.0 0.00 0.00 0.00 99 1016.2
20260503224236 61 256 7.0 9.0 0.00 0.00 0.00 99 1016.2
20260503223733 60 151 6.0 10.0 0.00 0.00 0.00 99 1016.6
20260503223231 60 151 6.0 10.0 0.00 0.00 0.00 99 1016.6
20260503222727 59 38 8.0 11.0 0.00 0.00 0.00 99 1016.3
20260503222225 59 38 8.0 11.0 0.00 0.00 0.00 99 1016.3
20260503221723 60 167 13.0 15.0 0.00 0.00 0.00 99 1016.6
20260503221220 60 167 13.0 15.0 0.00 0.00 0.00 99 1016.6
20260503220717 60 167 10.0 13.0 0.00 0.00 0.00 99 1017.2
20260503220214 60 167 10.0 13.0 0.00 0.00 0.00 99 1017.2
20260503215710 62 158 15.0 16.0 0.00 0.00 0.00 99 1017.2
20260503215207 62 158 15.0 16.0 0.00 0.00 0.00 99 1017.2
20260503214706 61 175 8.0 10.0 0.00 0.00 0.00 99 1017.1
20260503214202 61 175 8.0 10.0 0.00 0.00 0.00 99 1017.1
20260503213700 60 131 15.0 16.0 0.00 0.00 0.00 99 1016.9
20260503213157 60 131 15.0 16.0 0.00 0.00 0.00 99 1016.9
20260503212654 63 187 7.0 10.0 0.00 0.00 0.00 99 1017.6
20260503212151 63 187 7.0 10.0 0.00 0.00 0.00 99 1017.6
20260503211649 61 159 5.0 9.0 0.00 0.00 0.00 99 1017.6
20260503211144 61 159 5.0 9.0 0.00 0.00 0.00 99 1017.6
20260503210641 61 98 7.0 10.0 0.00 0.00 0.00 99 1017.6
20260503210138 61 98 7.0 10.0 0.00 0.00 0.00 99 1017.6
20260503205633 60 71 4.0 8.0 0.00 0.00 0.00 99 1017.9
20260503205130 60 71 4.0 8.0 0.00 0.00 0.00 99 1017.9
20260503204622 59 171 15.0 19.0 0.00 0.00 0.00 99 1018.1
20260503204119 59 171 15.0 19.0 0.00 0.00 0.00 99 1018.1
20260503203616 60 114 8.0 9.0 0.00 0.00 0.00 99 1018.6
20260503203113 60 114 8.0 9.0 0.00 0.00 0.00 99 1018.6
20260503202611 60 73 7.0 8.0 0.00 0.00 0.00 99 1018.6
20260503202109 60 73 7.0 8.0 0.00 0.00 0.00 99 1018.6
20260503201607 60 87 10.0 14.0 0.00 0.00 0.00 99 1018.6
20260503201103 60 87 10.0 14.0 0.00 0.00 0.00 99 1018.6
20260503200559 61 81 7.0 8.0 0.00 0.00 0.00 99 1018.7
20260503200056 61 81 7.0 8.0 0.00 0.00 0.00 99 1018.7
20260503195548 61 108 9.0 10.0 0.00 0.00 0.00 99 1018.7
20260503195044 61 108 9.0 10.0 0.00 0.00 0.00 99 1018.7
20260503194542 60 55 4.0 7.0 0.00 0.00 0.00 99 1018.8
20260503194041 60 55 4.0 7.0 0.00 0.00 0.00 99 1018.8
20260503193539 59 50 7.0 8.0 0.00 0.00 0.00 99 1018.9
20260503193039 59 50 7.0 8.0 0.00 0.00 0.00 99 1018.9
20260503192535 60 62 4.0 4.0 0.00 0.00 0.00 99 1018.7
20260503192031 60 62 4.0 4.0 0.00 0.00 0.00 99 1018.7
20260503191528 60 36 7.0 8.0 0.00 0.00 0.00 99 1018.6
20260503191025 60 36 7.0 8.0 0.00 0.00 0.00 99 1018.6
20260503190522 58 90 17.0 21.0 0.00 0.00 0.00 99 1018.9
20260503190019 58 90 17.0 21.0 0.00 0.00 0.00 99 1018.9
20260503185515 59 125 3.0 3.0 0.00 0.00 0.00 99 1019.3
20260503185015 59 125 3.0 3.0 0.00 0.00 0.00 99 1019.3
20260503184512 59 49 4.0 7.0 0.00 0.00 0.00 99 1019.3
20260503184008 59 49 4.0 7.0 0.00 0.00 0.00 99 1019.3
20260503183504 60 71 9.0 11.0 0.00 0.00 0.00 99 1019.6
20260503183002 60 71 9.0 11.0 0.00 0.00 0.00 99 1019.6
20260503182500 60 315 7.0 9.0 0.00 0.00 0.00 99 1019.7
20260503181957 60 315 7.0 9.0 0.00 0.00 0.00 99 1019.7
20260503181454 60 79 13.0 16.0 0.00 0.00 0.00 99 1019.7
20260503180950 60 79 13.0 16.0 0.00 0.00 0.00 99 1019.7
20260503180449 59 99 10.0 11.0 0.00 0.00 0.00 99 1019.8
20260503175945 59 99 10.0 11.0 0.00 0.00 0.00 99 1019.8
20260503175443 60 49 10.0 13.0 0.00 0.00 0.00 99 1019.7
20260503174939 59 81 4.0 4.0 0.00 0.00 0.00 99 1020.1
20260503174437 59 81 4.0 4.0 0.00 0.00 0.00 99 1020.1
20260503173937 58 79 10.0 15.0 0.00 0.00 0.00 99 1020.2
20260503173434 58 79 10.0 15.0 0.00 0.00 0.00 99 1020.2
20260503172931 58 115 3.0 6.0 0.00 0.00 0.00 99 1020.2
20260503172428 58 115 3.0 6.0 0.00 0.00 0.00 99 1020.2
20260503171924 62 358 2.0 3.0 0.00 0.00 0.00 99 1020.3
20260503171421 62 358 2.0 3.0 0.00 0.00 0.00 99 1020.3
20260503170919 58 84 12.0 15.0 0.00 0.00 0.00 99 1020.6
20260503170415 58 84 12.0 15.0 0.00 0.00 0.00 99 1020.6
20260503150807 56 56 10.0 11.0 0.00 0.00 0.00 99 1021.1
20260503150303 56 56 10.0 11.0 0.00 0.00 0.00 99 1021.1
20260503140228 53 74 8.0 9.0 0.00 0.00 0.00 99 1021.1
20260503131157 48 99 6.0 7.0 0.00 0.00 0.00 99 1021.1
20260503130654 47 119 6.0 7.0 0.00 0.00 0.00 99 1020.8
20260503130152 47 119 6.0 7.0 0.00 0.00 0.00 99 1020.8
20260503120117 46 92 9.0 10.0 0.00 0.00 0.00 99 1020.3
20260503110539 43 87 8.0 9.0 0.00 0.00 0.00 99 1020.1
20260503090426 44 135 10.0 11.0 0.00 0.00 0.00 99 1021.1
20260503081352 45 140 8.0 10.0 0.00 0.00 0.00 99 1021.3
20260503080849 45 140 8.0 10.0 0.00 0.00 0.00 99 1021.3
20260503080346 46 160 11.0 11.0 0.00 0.00 0.00 99 1021.4
20260503072823 47 150 10.0 11.0 0.00 0.00 0.00 99 1022.2
20260503072319 47 150 10.0 11.0 0.00 0.00 0.00 99 1022.2
20260503071815 48 124 9.0 10.0 0.00 0.00 0.00 99 1021.9
20260503071313 48 124 9.0 10.0 0.00 0.00 0.00 99 1021.9
20260503070809 48 136 7.0 10.0 0.00 0.00 0.00 99 1022.3
20260503070308 48 136 7.0 10.0 0.00 0.00 0.00 99 1022.3
20260503060226 49 157 1.0 2.0 0.00 0.00 0.00 99 1022.4
20260503054713 48 142 6.0 7.0 0.00 0.00 0.00 99 1022.4
20260503054210 48 142 6.0 7.0 0.00 0.00 0.00 99 1022.4
20260503053708 49 123 7.0 8.0 0.00 0.00 0.00 99 1022.3
20260503053207 49 123 7.0 8.0 0.00 0.00 0.00 99 1022.3
20260503052703 49 152 6.0 7.0 0.00 0.00 0.00 99 1022.3
20260503052159 49 152 6.0 7.0 0.00 0.00 0.00 99 1022.3
20260503051654 50 158 7.0 7.0 0.00 0.00 0.00 99 1022.3
20260503051152 50 158 7.0 7.0 0.00 0.00 0.00 99 1022.3
20260503050649 50 122 8.0 8.0 0.00 0.00 0.00 99 1022.2
20260503050145 50 122 8.0 8.0 0.00 0.00 0.00 99 1022.2
20260503045643 50 152 5.0 6.0 0.00 0.00 0.00 99 1022.4
20260503045140 50 152 5.0 6.0 0.00 0.00 0.00 99 1022.4
20260503044636 50 131 7.0 8.0 0.00 0.00 0.00 99 1022.2
20260503044134 50 131 7.0 8.0 0.00 0.00 0.00 99 1022.2
20260503043631 50 136 5.0 6.0 0.00 0.00 0.00 99 1022.6
20260503043127 50 136 5.0 6.0 0.00 0.00 0.00 99 1022.6
20260503042624 52 80 6.0 6.0 0.00 0.00 0.00 99 1022.4
20260503042120 52 80 6.0 6.0 0.00 0.00 0.00 99 1022.4
20260503041617 51 135 2.0 2.0 0.00 0.00 0.00 99 1022.6
20260503041115 51 135 2.0 2.0 0.00 0.00 0.00 99 1022.6
20260503040612 53 188 4.0 4.0 0.00 0.00 0.00 99 1022.4
20260503040109 53 188 4.0 4.0 0.00 0.00 0.00 99 1022.4
20260503035606 52 134 1.0 1.0 0.00 0.00 0.00 99 1022.3
20260503035103 52 134 1.0 1.0 0.00 0.00 0.00 99 1022.3
20260503034600 53 170 1.0 2.0 0.00 0.00 0.00 99 1022.3
20260503034058 53 170 1.0 2.0 0.00 0.00 0.00 99 1022.3
20260503033554 54 97 2.0 2.0 0.00 0.00 0.00 99 1022.3
20260503033053 54 97 2.0 2.0 0.00 0.00 0.00 99 1022.3
20260503032551 54 71 1.0 1.0 0.00 0.00 0.00 99 1022.3
20260503032048 54 71 1.0 1.0 0.00 0.00 0.00 99 1022.3
20260503031546 54 320 2.0 3.0 0.00 0.00 0.00 99 1022.2
20260503031043 54 320 2.0 3.0 0.00 0.00 0.00 99 1022.2
20260503030538 53 113 0.0 0.0 0.00 0.00 0.00 99 1022.1
20260503030036 53 113 0.0 0.0 0.00 0.00 0.00 99 1022.1
20260503025533 54 343 2.0 2.0 0.00 0.00 0.00 99 1022.1
20260503025031 54 343 2.0 2.0 0.00 0.00 0.00 99 1022.1
20260503024526 54 9 4.0 6.0 0.00 0.00 0.00 99 1021.9
20260503024024 54 9 4.0 6.0 0.00 0.00 0.00 99 1021.9
20260503023520 55 1 6.0 9.0 0.00 0.00 0.00 99 1022.1
20260503023018 55 1 6.0 9.0 0.00 0.00 0.00 99 1022.1
20260503022514 54 144 2.0 2.0 0.00 0.00 0.00 99 1021.8
20260503022009 54 144 2.0 2.0 0.00 0.00 0.00 99 1021.8
20260503021506 55 0 4.0 6.0 0.00 0.00 0.00 99 1021.8
20260503021003 55 0 4.0 6.0 0.00 0.00 0.00 99 1021.8
20260503020500 55 306 7.0 9.0 0.00 0.00 0.00 99 1021.9
20260503015956 55 306 7.0 9.0 0.00 0.00 0.00 99 1021.9
20260503015453 55 312 4.0 7.0 0.00 0.00 0.00 99 1021.7
20260503014950 55 312 4.0 7.0 0.00 0.00 0.00 99 1021.7
20260503014446 56 3 2.0 3.0 0.00 0.00 0.00 99 1021.8
20260503013945 56 3 2.0 3.0 0.00 0.00 0.00 99 1021.8
20260503013441 57 338 8.0 9.0 0.00 0.00 0.00 99 1021.4
20260503012938 57 338 8.0 9.0 0.00 0.00 0.00 99 1021.4
20260503012437 57 319 8.0 9.0 0.00 0.00 0.00 99 1021.6
20260503011932 57 319 8.0 9.0 0.00 0.00 0.00 99 1021.6
20260503011429 57 317 2.0 3.0 0.00 0.00 0.00 99 1021.6
20260503010927 57 317 2.0 3.0 0.00 0.00 0.00 99 1021.6
20260503010423 57 304 10.0 11.0 0.00 0.00 0.00 99 1021.4
20260503005920 57 304 10.0 11.0 0.00 0.00 0.00 99 1021.4
20260503005418 57 122 5.0 7.0 0.00 0.00 0.00 99 1021.6
20260503004914 57 122 5.0 7.0 0.00 0.00 0.00 99 1021.6